DW3543 Vernouillet FR current weather conditions

sailwx.info

Wind from 315

Air temperature 15.6° C
Dewpoint 13.9° C

Last reported at 2019-Sep-17 03:01 UTC.
Time now 2019-Sep-17 04:16 UTC

Location: N 48°57' E 001°58'.
View on Google Maps.

See reports from other nearby stations

  
Tides and Currents Weather Stations Pressure Air Temp Water Temp Dewpoint Dewpoint Depression Visibility Wind Speed Wind Dir Waves Ship Positions
date/time (UTC)wind fromknots sea level pressurealtimeterstation pressurevisibilityair tempwater tempwave heightnotes
2019-Sep-17 03:01 315 15.6
2019-Sep-17 02:46 310 15.6
2019-Sep-17 02:31 321 15.6
2019-Sep-17 02:17 321 15.0
2019-Sep-17 02:01 321 15.0
2019-Sep-17 01:46 321 14.4
2019-Sep-17 01:31 321 14.4
2019-Sep-17 01:16 321 15.0
2019-Sep-17 01:00 321 15.0
2019-Sep-17 00:46 320 15.6
2019-Sep-17 00:31 360 15.6
2019-Sep-17 00:15 015 15.6
2019-Sep-17 00:01 021 15.6
2019-Sep-16 23:46 313 16.1
2019-Sep-16 23:31 344 16.1
2019-Sep-16 23:16 335 16.1
2019-Sep-16 23:01 035 16.1
2019-Sep-16 22:46 282 15.6
2019-Sep-16 22:30 360 15.0
2019-Sep-16 22:16 315 15.6
2019-Sep-16 22:00 322 0 gusting 1 15.6
2019-Sep-16 21:45 338 16.1
2019-Sep-16 21:30 338 16.1
2019-Sep-16 21:15 284 16.7
2019-Sep-16 21:00 346 16.7
2019-Sep-16 20:45 021 16.7
2019-Sep-16 20:15 326 0 gusting 5 17.8
2019-Sep-16 20:00 273 0 gusting 6 17.8
2019-Sep-16 19:45 360 0 gusting 3 18.3
2019-Sep-16 19:30 015 18.9
2019-Sep-16 19:15 340 0 gusting 6 18.9
2019-Sep-16 19:00 300 0 gusting 3 19.4
2019-Sep-16 18:45 343 0 gusting 4 19.4
2019-Sep-16 18:30 345 0 gusting 4 20.0
2019-Sep-16 18:15 346 20.6
2019-Sep-16 18:01 355 0 gusting 4 21.1
2019-Sep-16 17:45 005 0 gusting 3 21.7
2019-Sep-16 17:30 310 1 gusting 8 22.2
2019-Sep-16 17:15 321 0 gusting 6 22.2
2019-Sep-16 17:00 324 0 gusting 4 22.8
2019-Sep-16 16:45 035 1 gusting 7 23.3
2019-Sep-16 16:30 026 1 gusting 4 23.9
2019-Sep-16 16:15 281 1 gusting 6 24.4
2019-Sep-16 16:00 298 0 gusting 4 25.0
2019-Sep-16 15:45 286 0 gusting 3 25.0
2019-Sep-16 15:32 039 1 gusting 6 25.0
2019-Sep-16 15:18 015 1 gusting 4 25.0
2019-Sep-16 15:01 286 0 gusting 6 25.6
2019-Sep-16 14:47 305 0 gusting 5 25.6
2019-Sep-16 14:31 292 0 gusting 6 25.0
2019-Sep-16 14:16 310 1 gusting 7 25.6
2019-Sep-16 14:01 270 0 gusting 7 25.6
2019-Sep-16 13:47 026 1 gusting 4 25.6
2019-Sep-16 13:31 281 3 gusting 6 25.0
2019-Sep-16 13:16 269 0 gusting 3 25.0
2019-Sep-16 13:01 043 1 gusting 7 24.4
2019-Sep-16 12:46 253 1 gusting 6 24.4
2019-Sep-16 12:30 028 1 gusting 5 23.9
2019-Sep-16 12:15 338 0 gusting 3 23.9
2019-Sep-16 12:01 290 1 gusting 7 23.9
2019-Sep-16 11:46 030 0 gusting 7 23.3
2019-Sep-16 11:31 043 1 gusting 6 22.8
2019-Sep-16 11:15 279 0 gusting 5 22.2
2019-Sep-16 11:00 043 1 gusting 6 21.7
2019-Sep-16 10:45 019 0 gusting 4 21.7
2019-Sep-16 10:31 081 1 gusting 4 21.1
2019-Sep-16 10:15 021 0 gusting 4 20.6
2019-Sep-16 10:01 290 0 gusting 5 20.0
2019-Sep-16 09:45 267 1 gusting 6 20.0
2019-Sep-16 09:30 292 1 gusting 4 19.4
2019-Sep-16 09:15 302 0 gusting 3 18.9
2019-Sep-16 09:02 287 1 gusting 4 18.3
2019-Sep-16 08:46 295 17.8
2019-Sep-16 08:31 059 1 gusting 6 17.2
2019-Sep-16 08:16 360 16.7
2019-Sep-16 08:01 288 0 gusting 2 15.0
2019-Sep-16 07:45 279 0 gusting 2 14.4
2019-Sep-16 07:31 292 13.9
2019-Sep-16 07:16 299 0 gusting 3 13.9
2019-Sep-16 07:00 275 0 gusting 2 13.3
2019-Sep-16 06:46 277 0 gusting 2 12.8
2019-Sep-16 06:30 249 12.8
2019-Sep-16 06:15 249 12.8
2019-Sep-16 06:01 249 12.8
2019-Sep-16 05:45 248 0 gusting 3 12.2
2019-Sep-16 05:30 261 0 gusting 2 12.2
2019-Sep-16 05:15 250 0 gusting 3 12.2
2019-Sep-16 05:00 254 12.2
2019-Sep-16 04:46 254 12.8
2019-Sep-16 04:30 272 12.8
2019-Sep-16 04:15 261 0 gusting 2 12.8
2019-Sep-16 04:00 261 12.8
2019-Sep-16 03:45 235 12.8
2019-Sep-16 03:30 252 13.3
2019-Sep-16 03:15 252 0 gusting 4 13.3
2019-Sep-16 03:00 257 0 gusting 2 12.8
2019-Sep-16 02:45 269 12.8
2019-Sep-16 02:30 269 12.8
2019-Sep-16 02:15 269 12.8
2019-Sep-16 02:00 269 13.3
2019-Sep-16 01:45 269 13.3
2019-Sep-16 01:32 269 0 gusting 1 13.3
2019-Sep-16 01:17 269 13.3
2019-Sep-16 01:01 269 13.3
2019-Sep-16 00:46 269 13.3
2019-Sep-16 00:31 269 13.3
2019-Sep-16 00:16 269 13.9
2019-Sep-16 00:02 269 14.4
2019-Sep-15 23:46 269 13.9
2019-Sep-15 23:31 269 14.4
2019-Sep-15 23:16 269 14.4
2019-Sep-15 23:02 269 15.0
2019-Sep-15 22:46 269 15.0
2019-Sep-15 22:31 342 0 gusting 1 15.6
2019-Sep-15 22:15 302 15.6
2019-Sep-15 22:00 302 15.6
2019-Sep-15 21:45 302 16.1
2019-Sep-15 21:31 296 16.1
2019-Sep-15 21:15 296 16.7
2019-Sep-15 21:01 296 16.7
2019-Sep-15 20:46 296 16.7
2019-Sep-15 20:30 296 17.2
2019-Sep-15 20:16 296 0 gusting 1 17.8
2019-Sep-15 20:00 297 18.9
2019-Sep-15 19:46 297 20.0
2019-Sep-15 19:30 292 0 gusting 2 20.0
2019-Sep-15 19:16 286 0 gusting 1 18.9
2019-Sep-15 19:01 286 18.3
2019-Sep-15 18:45 286 18.3
2019-Sep-15 18:30 286 18.9
2019-Sep-15 18:16 286 20.0
2019-Sep-15 18:00 286 21.1
2019-Sep-15 17:46 286 0 gusting 2 22.2
2019-Sep-15 17:30 022 0 gusting 1 22.2
2019-Sep-15 17:16 022 23.9
2019-Sep-15 17:01 011 25.0
2019-Sep-15 16:45 251 25.6
2019-Sep-15 16:30 296 1 gusting 3 26.1
2019-Sep-15 16:15 350 26.1
2019-Sep-15 16:00 331 0 gusting 3 26.7
2019-Sep-15 15:45 302 0 gusting 5 26.7
2019-Sep-15 15:30 289 0 gusting 3 26.7
2019-Sep-15 15:15 024 26.7
2019-Sep-15 15:00 029 1 gusting 4 26.7
2019-Sep-15 14:45 028 2 gusting 5 26.7
2019-Sep-15 14:30 089 2 gusting 6 26.7
2019-Sep-15 14:15 027 2 gusting 4 26.1
2019-Sep-15 14:00 076 0 gusting 4 26.1
2019-Sep-15 13:47 030 1 gusting 5 26.1
2019-Sep-15 13:31 011 0 gusting 5 25.6
2019-Sep-15 13:16 042 0 gusting 5 25.6
2019-Sep-15 13:01 245 25.6
2019-Sep-15 12:46 028 0 gusting 5 25.6
2019-Sep-15 12:31 043 0 gusting 6 25.0
2019-Sep-15 12:16 052 2 gusting 5 25.0
2019-Sep-15 12:01 029 2 gusting 5 24.4
2019-Sep-15 11:47 309 1 gusting 5 23.9
2019-Sep-15 11:30 294 0 gusting 3 23.9
2019-Sep-15 11:16 123 0 gusting 3 23.9
2019-Sep-15 11:01 360 0 gusting 4 22.8
2019-Sep-15 10:46 054 1 gusting 5 23.3
2019-Sep-15 10:30 043 0 gusting 6 22.8
2019-Sep-15 10:15 032 1 gusting 4 22.2
2019-Sep-15 10:01 061 1 gusting 3 22.2
2019-Sep-15 09:45 104 0 gusting 3 21.7
2019-Sep-15 09:30 065 21.1
2019-Sep-15 09:15 057 21.1
2019-Sep-15 09:00 005 20.6
2019-Sep-15 08:45 005 0 gusting 2 19.4
2019-Sep-15 08:32 005 0 gusting 2 18.3
2019-Sep-15 08:17 324 0 gusting 1 17.8
2019-Sep-15 08:02 292 16.7
2019-Sep-15 07:46 289 0 gusting 1 16.1
2019-Sep-15 07:32 289 0 gusting 1 15.0
2019-Sep-15 07:16 265 14.4
2019-Sep-15 07:01 265 13.9
2019-Sep-15 06:46 265 12.8
2019-Sep-15 06:30 265 12.2
2019-Sep-15 06:16 265 11.7
2019-Sep-15 06:01 146 11.7
2019-Sep-15 05:45 146 11.1
2019-Sep-15 05:30 146 11.1
2019-Sep-15 05:16 146 11.1
2019-Sep-15 05:00 146 11.1
2019-Sep-15 04:45 146 11.1
2019-Sep-15 04:30 146 11.7
2019-Sep-15 04:15 146 0 gusting 1 11.7
2019-Sep-15 04:00 145 11.7